Time,TemperatureF,DewpointF,PressureIn,WindDirection,WindDirectionDegrees,WindSpeedMPH,WindSpeedGustMPH,Humidity,HourlyPrecipIn,Conditions,Clouds,dailyrainin,SoftwareType,DateUTC
2013-03-18 00:00:00,27.7,8.1,30.26,North,10,1.0,4.0,43,0.00,,,0.00,Wunderground v.1.15,2013-03-18 04:00:00,
2013-03-18 00:02:00,27.7,8.1,30.26,North,10,2.0,7.0,43,0.00,,,0.00,Wunderground v.1.15,2013-03-18 04:02:00,
2013-03-18 00:03:00,27.7,8.1,30.26,North,5,3.0,7.0,43,0.00,,,0.00,Wunderground v.1.15,2013-03-18 04:03:00,
2013-03-18 00:04:00,27.8,8.2,30.26,North,355,3.0,7.0,43,0.00,,,0.00,Wunderground v.1.15,2013-03-18 04:04:00,
2013-03-18 00:09:00,27.6,8.0,30.26,North,9,3.0,7.0,43,0.00,,,0.00,Wunderground v.1.15,2013-03-18 04:09:00,
2013-03-18 00:15:00,27.6,7.5,30.26,North,360,3.0,4.0,42,0.00,,,0.00,Wunderground v.1.15,2013-03-18 04:15:00,
2013-03-18 00:20:00,27.5,7.4,30.26,North,5,4.0,4.0,42,0.00,,,0.00,Wunderground v.1.15,2013-03-18 04:20:00,
2013-03-18 00:25:00,27.4,6.8,30.26,North,5,3.0,5.0,41,0.00,,,0.00,Wunderground v.1.15,2013-03-18 04:25:00,
2013-03-18 00:31:00,27.2,6.6,30.26,NNW,334,2.0,2.0,41,0.00,,,0.00,Wunderground v.1.15,2013-03-18 04:31:00,
2013-03-18 00:37:00,27.1,6.5,30.26,NNW,344,1.0,4.0,41,0.00,,,0.00,Wunderground v.1.15,2013-03-18 04:37:00,
2013-03-18 00:43:00,27.0,6.9,30.26,North,9,1.0,1.0,42,0.00,,,0.00,Wunderground v.1.15,2013-03-18 04:43:00,
2013-03-18 00:49:00,26.9,6.8,30.27,North,5,0.0,2.0,42,0.00,,,0.00,Wunderground v.1.15,2013-03-18 04:49:00,
2013-03-18 00:54:00,26.7,6.6,30.27,NNE,17,1.0,2.0,42,0.00,,,0.00,Wunderground v.1.15,2013-03-18 04:54:00,
2013-03-18 00:59:00,26.6,7.1,30.27,NNE,18,1.0,3.0,43,0.00,,,0.00,Wunderground v.1.15,2013-03-18 04:59:00,
2013-03-18 01:04:00,26.5,7.5,30.28,NNE,22,2.0,3.0,44,0.00,,,0.00,Wunderground v.1.15,2013-03-18 05:04:00,
2013-03-18 01:10:00,26.4,7.4,30.28,North,5,2.0,2.0,44,0.00,,,0.00,Wunderground v.1.15,2013-03-18 05:10:00,
2013-03-18 01:15:00,26.5,8.0,30.28,North,350,3.0,6.0,45,0.00,,,0.00,Wunderground v.1.15,2013-03-18 05:15:00,
2013-03-18 01:20:00,26.4,7.4,30.28,North,355,4.0,7.0,44,0.00,,,0.00,Wunderground v.1.15,2013-03-18 05:20:00,
2013-03-18 01:26:00,26.4,6.9,30.28,North,360,5.0,7.0,43,0.00,,,0.00,Wunderground v.1.15,2013-03-18 05:26:00,
2013-03-18 01:32:00,26.3,5.8,30.29,North,9,5.0,8.0,41,0.00,,,0.00,Wunderground v.1.15,2013-03-18 05:32:00,
2013-03-18 01:37:00,26.2,4.6,30.30,NNW,343,5.0,8.0,39,0.00,,,0.00,Wunderground v.1.15,2013-03-18 05:37:00,
2013-03-18 01:42:00,26.1,4.5,30.30,North,355,4.0,9.0,39,0.00,,,0.00,Wunderground v.1.15,2013-03-18 05:42:00,
2013-03-18 01:48:00,26.0,3.8,30.30,NW,326,5.0,11.0,38,0.00,,,0.00,Wunderground v.1.15,2013-03-18 05:48:00,
2013-03-18 01:53:00,25.9,3.2,30.30,North,360,5.0,6.0,37,0.00,,,0.00,Wunderground v.1.15,2013-03-18 05:53:00,
2013-03-18 01:58:00,25.8,3.6,30.29,WNW,295,4.0,8.0,38,0.00,,,0.00,Wunderground v.1.15,2013-03-18 05:58:00,
2013-03-18 02:03:00,25.6,3.5,30.30,NNE,15,4.0,7.0,38,0.00,,,0.00,Wunderground v.1.15,2013-03-18 06:03:00,
2013-03-18 02:08:00,25.5,3.4,30.30,NNE,24,3.0,7.0,38,0.00,,,0.00,Wunderground v.1.15,2013-03-18 06:08:00,
2013-03-18 02:13:00,25.4,3.8,30.30,NNE,21,3.0,4.0,39,0.00,,,0.00,Wunderground v.1.15,2013-03-18 06:13:00,
2013-03-18 02:18:00,25.2,3.7,30.30,North,350,2.0,4.0,39,0.00,,,0.00,Wunderground v.1.15,2013-03-18 06:18:00,
2013-03-18 02:24:00,25.0,4.0,30.30,NNW,338,2.0,3.0,40,0.00,,,0.00,Wunderground v.1.15,2013-03-18 06:24:00,
2013-03-18 02:30:00,24.8,4.4,30.30,NNW,343,1.0,1.0,41,0.00,,,0.00,Wunderground v.1.15,2013-03-18 06:30:00,
2013-03-18 02:35:00,24.7,4.3,30.31,North,10,2.0,9.0,41,0.00,,,0.00,Wunderground v.1.15,2013-03-18 06:35:00,
2013-03-18 02:40:00,24.7,4.8,30.30,NW,309,2.0,2.0,42,0.00,,,0.00,Wunderground v.1.15,2013-03-18 06:40:00,
2013-03-18 02:45:00,24.6,4.7,30.31,NNW,336,3.0,8.0,42,0.00,,,0.00,Wunderground v.1.15,2013-03-18 06:45:00,
2013-03-18 02:51:00,24.5,4.6,30.31,North,360,3.0,3.0,42,0.00,,,0.00,Wunderground v.1.15,2013-03-18 06:51:00,
2013-03-18 02:56:00,24.4,4.6,30.32,North,5,2.0,3.0,42,0.00,,,0.00,Wunderground v.1.15,2013-03-18 06:56:00,
2013-03-18 03:01:00,24.3,5.0,30.32,North,355,1.0,4.0,43,0.00,,,0.00,Wunderground v.1.15,2013-03-18 07:01:00,
2013-03-18 03:06:00,24.2,4.4,30.32,NNE,14,2.0,4.0,42,0.00,,,0.00,Wunderground v.1.15,2013-03-18 07:06:00,
2013-03-18 03:12:00,24.0,4.2,30.32,North,360,1.0,2.0,42,0.00,,,0.00,Wunderground v.1.15,2013-03-18 07:12:00,
2013-03-18 03:18:00,23.9,3.0,30.32,NNE,22,2.0,5.0,40,0.00,,,0.00,Wunderground v.1.15,2013-03-18 07:18:00,
2013-03-18 03:23:00,23.9,2.5,30.32,North,350,3.0,3.0,39,0.00,,,0.00,Wunderground v.1.15,2013-03-18 07:23:00,
2013-03-18 03:28:00,23.8,1.8,30.32,North,5,4.0,6.0,38,0.00,,,0.00,Wunderground v.1.15,2013-03-18 07:28:00,
2013-03-18 03:34:00,23.6,1.7,30.32,NNE,33,4.0,7.0,38,0.00,,,0.00,Wunderground v.1.15,2013-03-18 07:34:00,
2013-03-18 03:40:00,23.5,1.6,30.32,NNW,338,3.0,3.0,38,0.00,,,0.00,Wunderground v.1.15,2013-03-18 07:40:00,
2013-03-18 03:45:00,23.4,1.5,30.33,NW,318,3.0,3.0,38,0.00,,,0.00,Wunderground v.1.15,2013-03-18 07:45:00,
2013-03-18 03:50:00,23.3,1.4,30.33,NNE,15,2.0,2.0,38,0.00,,,0.00,Wunderground v.1.15,2013-03-18 07:50:00,
2013-03-18 03:56:00,23.2,0.7,30.33,North,11,2.0,6.0,37,0.00,,,0.00,Wunderground v.1.15,2013-03-18 07:56:00,
2013-03-18 04:01:00,23.1,0.6,30.33,NNE,26,3.0,4.0,37,0.00,,,0.00,Wunderground v.1.15,2013-03-18 08:01:00,
2013-03-18 04:07:00,23.1,0.6,30.34,North,355,3.0,6.0,37,0.00,,,0.00,Wunderground v.1.15,2013-03-18 08:07:00,
2013-03-18 04:12:00,22.9,0.5,30.34,North,360,3.0,3.0,37,0.00,,,0.00,Wunderground v.1.15,2013-03-18 08:12:00,
2013-03-18 04:17:00,22.8,0.4,30.33,NNE,24,3.0,4.0,37,0.00,,,0.00,Wunderground v.1.15,2013-03-18 08:17:00,
2013-03-18 04:23:00,22.6,0.2,30.34,NNW,345,3.0,7.0,37,0.00,,,0.00,Wunderground v.1.15,2013-03-18 08:23:00,
2013-03-18 04:28:00,22.6,0.2,30.33,North,360,4.0,7.0,37,0.00,,,0.00,Wunderground v.1.15,2013-03-18 08:28:00,
2013-03-18 04:33:00,22.5,0.7,30.33,NNW,331,3.0,4.0,38,0.00,,,0.00,Wunderground v.1.15,2013-03-18 08:33:00,
2013-03-18 04:38:00,22.4,0.6,30.33,North,9,3.0,5.0,38,0.00,,,0.00,Wunderground v.1.15,2013-03-18 08:38:00,
2013-03-18 04:43:00,22.3,0.5,30.33,NNW,339,2.0,3.0,38,0.00,,,0.00,Wunderground v.1.15,2013-03-18 08:43:00,
2013-03-18 04:49:00,22.2,1.0,30.33,NNW,344,1.0,3.0,39,0.00,,,0.00,Wunderground v.1.15,2013-03-18 08:49:00,
2013-03-18 04:54:00,22.1,1.4,30.34,NW,305,0.0,1.0,40,0.00,,,0.00,Wunderground v.1.15,2013-03-18 08:54:00,
2013-03-18 05:00:00,21.9,1.2,30.34,NW,306,1.0,1.0,40,0.00,,,0.00,Wunderground v.1.15,2013-03-18 09:00:00,
2013-03-18 05:06:00,21.8,1.1,30.34,NNW,346,0.0,2.0,40,0.00,,,0.00,Wunderground v.1.15,2013-03-18 09:06:00,
2013-03-18 05:12:00,21.6,1.5,30.34,NW,326,0.0,0.0,41,0.00,,,0.00,Wunderground v.1.15,2013-03-18 09:12:00,
2013-03-18 05:17:00,21.5,1.4,30.34,WNW,296,0.0,2.0,41,0.00,,,0.00,Wunderground v.1.15,2013-03-18 09:17:00,
2013-03-18 05:23:00,21.4,1.8,30.35,NW,308,0.0,2.0,42,0.00,,,0.00,Wunderground v.1.15,2013-03-18 09:23:00,
2013-03-18 05:28:00,21.3,1.2,30.35,NW,309,0.0,2.0,41,0.00,,,0.00,Wunderground v.1.15,2013-03-18 09:28:00,
2013-03-18 05:34:00,21.2,1.1,30.35,NW,316,0.0,0.0,41,0.00,,,0.00,Wunderground v.1.15,2013-03-18 09:34:00,
2013-03-18 05:39:00,21.1,1.0,30.35,NNW,331,0.0,3.0,41,0.00,,,0.00,Wunderground v.1.15,2013-03-18 09:39:00,
2013-03-18 05:44:00,21.0,0.9,30.36,NW,313,0.0,2.0,41,0.00,,,0.00,Wunderground v.1.15,2013-03-18 09:44:00,
2013-03-18 05:50:00,20.9,1.4,30.36,NW,322,0.0,0.0,42,0.00,,,0.00,Wunderground v.1.15,2013-03-18 09:50:00,
2013-03-18 05:55:00,20.8,1.3,30.35,North,355,0.0,2.0,42,0.00,,,0.00,Wunderground v.1.15,2013-03-18 09:55:00,
2013-03-18 06:00:00,20.8,1.8,30.36,NNW,335,1.0,1.0,43,0.00,,,0.00,Wunderground v.1.15,2013-03-18 10:00:00,
2013-03-18 06:06:00,20.7,1.7,30.37,NW,319,1.0,2.0,43,0.00,,,0.00,Wunderground v.1.15,2013-03-18 10:06:00,
2013-03-18 06:12:00,20.7,2.2,30.36,WNW,298,1.0,2.0,44,0.00,,,0.00,Wunderground v.1.15,2013-03-18 10:12:00,
2013-03-18 06:17:00,20.6,2.6,30.37,West,281,1.0,2.0,45,0.00,,,0.00,Wunderground v.1.15,2013-03-18 10:17:00,
2013-03-18 06:23:00,20.5,2.5,30.37,NW,308,1.0,2.0,45,0.00,,,0.00,Wunderground v.1.15,2013-03-18 10:23:00,
2013-03-18 06:28:00,20.5,2.5,30.37,NW,324,1.0,2.0,45,0.00,,,0.00,Wunderground v.1.15,2013-03-18 10:28:00,
2013-03-18 06:34:00,20.4,2.4,30.38,West,281,1.0,2.0,45,0.00,,,0.00,Wunderground v.1.15,2013-03-18 10:34:00,
2013-03-18 06:39:00,20.3,2.3,30.37,NW,305,1.0,3.0,45,0.00,,,0.00,Wunderground v.1.15,2013-03-18 10:39:00,
2013-03-18 06:44:00,20.3,2.8,30.38,NNW,331,1.0,2.0,46,0.00,,,0.00,Wunderground v.1.15,2013-03-18 10:44:00,
2013-03-18 06:49:00,20.3,2.8,30.38,NNW,327,1.0,2.0,46,0.00,,,0.00,Wunderground v.1.15,2013-03-18 10:49:00,
2013-03-18 06:54:00,20.2,2.7,30.38,WNW,302,0.0,1.0,46,0.00,,,0.00,Wunderground v.1.15,2013-03-18 10:54:00,
2013-03-18 07:00:00,20.1,3.1,30.38,NNW,343,0.0,0.0,47,0.00,,,0.00,Wunderground v.1.15,2013-03-18 11:00:00,
2013-03-18 07:06:00,20.1,3.1,30.39,North,5,0.0,1.0,47,0.00,,,0.00,Wunderground v.1.15,2013-03-18 11:06:00,
2013-03-18 07:11:00,20.2,3.6,30.39,WNW,302,1.0,1.0,48,0.00,,,0.00,Wunderground v.1.15,2013-03-18 11:11:00,
2013-03-18 07:16:00,20.2,3.6,30.39,North,355,1.0,3.0,48,0.00,,,0.00,Wunderground v.1.15,2013-03-18 11:16:00,
2013-03-18 07:22:00,20.4,3.8,30.39,North,355,1.0,1.0,48,0.00,,,0.00,Wunderground v.1.15,2013-03-18 11:22:00,
2013-03-18 07:27:00,20.6,4.0,30.39,NW,316,0.0,1.0,48,0.00,,,0.00,Wunderground v.1.15,2013-03-18 11:27:00,
2013-03-18 07:32:00,20.8,4.2,30.39,North,360,1.0,2.0,48,0.00,,,0.00,Wunderground v.1.15,2013-03-18 11:32:00,
2013-03-18 07:37:00,21.2,4.5,30.39,NNW,345,1.0,2.0,48,0.00,,,0.00,Wunderground v.1.15,2013-03-18 11:37:00,
2013-03-18 07:43:00,21.5,4.4,30.39,North,355,1.0,2.0,47,0.00,,,0.00,Wunderground v.1.15,2013-03-18 11:43:00,
2013-03-18 07:49:00,22.1,4.9,30.39,NNW,348,1.0,2.0,47,0.00,,,0.00,Wunderground v.1.15,2013-03-18 11:49:00,
2013-03-18 07:55:00,22.5,4.8,30.39,NNW,337,1.0,2.0,46,0.00,,,0.00,Wunderground v.1.15,2013-03-18 11:55:00,
2013-03-18 08:00:00,22.9,4.7,30.39,North,5,1.0,1.0,45,0.00,,,0.00,Wunderground v.1.15,2013-03-18 12:00:00,
2013-03-18 08:06:00,23.3,5.1,30.39,North,355,1.0,5.0,45,0.00,,,0.00,Wunderground v.1.15,2013-03-18 12:06:00,
2013-03-18 08:13:00,23.6,5.3,30.39,North,5,2.0,2.0,45,0.00,,,0.00,Wunderground v.1.15,2013-03-18 12:13:00,
2013-03-18 08:18:00,24.0,5.7,30.39,North,355,2.0,5.0,45,0.00,,,0.00,Wunderground v.1.15,2013-03-18 12:18:00,
2013-03-18 08:24:00,24.3,5.5,30.39,NW,326,2.0,7.0,44,0.00,,,0.00,Wunderground v.1.15,2013-03-18 12:24:00,
2013-03-18 08:29:00,24.6,5.8,30.40,NNW,338,2.0,7.0,44,0.00,,,0.00,Wunderground v.1.15,2013-03-18 12:29:00,
2013-03-18 08:35:00,24.7,5.8,30.40,North,355,4.0,6.0,44,0.00,,,0.00,Wunderground v.1.15,2013-03-18 12:35:00,
2013-03-18 08:40:00,24.8,6.4,30.40,NNE,32,4.0,4.0,45,0.00,,,0.00,Wunderground v.1.15,2013-03-18 12:40:00,
2013-03-18 08:46:00,25.4,7.0,30.40,NE,39,3.0,4.0,45,0.00,,,0.00,Wunderground v.1.15,2013-03-18 12:46:00,
2013-03-18 08:53:00,25.7,6.8,30.40,NNW,346,2.0,2.0,44,0.00,,,0.00,Wunderground v.1.15,2013-03-18 12:53:00,
2013-03-18 08:59:00,25.9,7.4,30.40,North,355,2.0,4.0,45,0.00,,,0.00,Wunderground v.1.15,2013-03-18 12:59:00,
2013-03-18 09:04:00,26.1,8.1,30.40,NNE,24,3.0,7.0,46,0.00,,,0.00,Wunderground v.1.15,2013-03-18 13:04:00,
2013-03-18 09:09:00,26.2,8.2,30.40,NNE,24,3.0,7.0,46,0.00,,,0.00,Wunderground v.1.15,2013-03-18 13:09:00,
2013-03-18 09:14:00,26.5,9.0,30.40,NNE,33,2.0,4.0,47,0.00,,,0.00,Wunderground v.1.15,2013-03-18 13:14:00,
2013-03-18 09:20:00,27.0,9.4,30.40,ENE,63,2.0,2.0,47,0.00,,,0.00,Wunderground v.1.15,2013-03-18 13:20:00,
2013-03-18 09:25:00,27.3,9.7,30.40,NNW,335,2.0,2.0,47,0.00,,,0.00,Wunderground v.1.15,2013-03-18 13:25:00,
2013-03-18 09:30:00,27.5,9.4,30.40,NE,40,2.0,2.0,46,0.00,,,0.00,Wunderground v.1.15,2013-03-18 13:30:00,
2013-03-18 09:36:00,27.7,10.1,30.40,NNE,26,2.0,2.0,47,0.00,,,0.00,Wunderground v.1.15,2013-03-18 13:36:00,
2013-03-18 09:41:00,27.9,10.7,30.39,North,360,2.0,2.0,48,0.00,,,0.00,Wunderground v.1.15,2013-03-18 13:41:00,
2013-03-18 09:46:00,28.1,11.8,30.40,NE,47,2.0,2.0,50,0.00,,,0.00,Wunderground v.1.15,2013-03-18 13:46:00,
2013-03-18 09:51:00,28.2,11.9,30.39,North,11,2.0,2.0,50,0.00,,,0.00,Wunderground v.1.15,2013-03-18 13:51:00,
2013-03-18 09:57:00,28.4,12.6,30.39,NE,40,2.0,6.0,51,0.00,,,0.00,Wunderground v.1.15,2013-03-18 13:57:00,
2013-03-18 10:03:00,28.4,12.6,30.39,ENE,71,2.0,2.0,51,0.00,,,0.00,Wunderground v.1.15,2013-03-18 14:03:00,
2013-03-18 10:08:00,28.4,13.0,30.39,NE,56,2.0,3.0,52,0.00,,,0.00,Wunderground v.1.15,2013-03-18 14:08:00,
2013-03-18 10:14:00,28.6,13.2,30.39,SW,227,1.0,2.0,52,0.00,,,0.00,Wunderground v.1.15,2013-03-18 14:14:00,
2013-03-18 10:20:00,28.4,13.0,30.39,NE,36,1.0,2.0,52,0.00,,,0.00,Wunderground v.1.15,2013-03-18 14:20:00,
2013-03-18 10:25:00,28.4,13.0,30.39,ESE,117,2.0,5.0,52,0.00,,,0.00,Wunderground v.1.15,2013-03-18 14:25:00,
2013-03-18 10:32:00,28.4,13.4,30.39,East,82,2.0,2.0,53,0.00,,,0.00,Wunderground v.1.15,2013-03-18 14:32:00,
2013-03-18 10:37:00,28.6,13.6,30.39,ENE,74,3.0,7.0,53,0.00,,,0.00,Wunderground v.1.15,2013-03-18 14:37:00,
2013-03-18 10:42:00,28.5,13.5,30.39,West,275,3.0,4.0,53,0.00,,,0.00,Wunderground v.1.15,2013-03-18 14:42:00,
2013-03-18 10:48:00,28.5,13.9,30.39,SW,223,2.0,4.0,54,0.00,,,0.00,Wunderground v.1.15,2013-03-18 14:48:00,
2013-03-18 10:54:00,28.7,14.1,30.39,East,86,2.0,5.0,54,0.00,,,0.00,Wunderground v.1.15,2013-03-18 14:54:00,
2013-03-18 10:59:00,28.7,14.1,30.39,SE,126,3.0,5.0,54,0.00,,,0.00,Wunderground v.1.15,2013-03-18 14:59:00,
2013-03-18 11:05:00,29.3,14.3,30.38,East,93,1.0,4.0,53,0.00,,,0.00,Wunderground v.1.15,2013-03-18 15:05:00,
2013-03-18 11:11:00,29.7,15.1,30.38,East,89,1.0,1.0,54,0.00,,,0.00,Wunderground v.1.15,2013-03-18 15:11:00,
2013-03-18 11:16:00,30.0,14.5,30.38,NE,40,2.0,5.0,52,0.00,,,0.00,Wunderground v.1.15,2013-03-18 15:16:00,
2013-03-18 11:21:00,29.9,14.8,30.38,SSW,200,2.0,2.0,53,0.00,,,0.00,Wunderground v.1.15,2013-03-18 15:21:00,
2013-03-18 11:26:00,29.8,14.7,30.38,East,80,2.0,5.0,53,0.00,,,0.00,Wunderground v.1.15,2013-03-18 15:26:00,
2013-03-18 11:31:00,30.0,14.9,30.38,West,261,2.0,2.0,53,0.00,,,0.00,Wunderground v.1.15,2013-03-18 15:31:00,
2013-03-18 11:37:00,29.8,15.2,30.38,ESE,103,2.0,5.0,54,0.00,,,0.00,Wunderground v.1.15,2013-03-18 15:37:00,
2013-03-18 11:43:00,29.9,15.3,30.38,NNE,14,2.0,5.0,54,0.00,,,0.00,Wunderground v.1.15,2013-03-18 15:43:00,
2013-03-18 11:49:00,30.0,15.3,30.38,SSE,150,1.0,6.0,54,0.00,,,0.00,Wunderground v.1.15,2013-03-18 15:49:00,
2013-03-18 11:55:00,29.8,15.2,30.38,SSE,161,2.0,5.0,54,0.00,,,0.00,Wunderground v.1.15,2013-03-18 15:55:00,
2013-03-18 12:00:00,29.9,15.7,30.37,ENE,71,3.0,3.0,55,0.00,,,0.00,Wunderground v.1.15,2013-03-18 16:00:00,
2013-03-18 12:05:00,30.0,15.8,30.38,SE,127,3.0,5.0,55,0.00,,,0.00,Wunderground v.1.15,2013-03-18 16:05:00,
2013-03-18 12:10:00,30.2,16.0,30.37,ENE,64,3.0,3.0,55,0.00,,,0.00,Wunderground v.1.15,2013-03-18 16:10:00,
2013-03-18 12:16:00,30.3,15.6,30.37,SE,144,3.0,7.0,54,0.00,,,0.00,Wunderground v.1.15,2013-03-18 16:16:00,
2013-03-18 12:22:00,29.9,15.7,30.37,SSE,153,4.0,6.0,55,0.00,,,0.00,Wunderground v.1.15,2013-03-18 16:22:00,
2013-03-18 12:28:00,30.1,15.9,30.37,East,92,3.0,6.0,55,0.00,,,0.00,Wunderground v.1.15,2013-03-18 16:28:00,
2013-03-18 12:34:00,30.1,15.9,30.36,NE,46,3.0,4.0,55,0.00,,,0.00,Wunderground v.1.15,2013-03-18 16:34:00,
2013-03-18 12:39:00,30.0,16.2,30.36,ESE,106,2.0,7.0,56,0.00,,,0.00,Wunderground v.1.15,2013-03-18 16:39:00,
2013-03-18 12:45:00,30.1,16.3,30.36,NE,55,3.0,7.0,56,0.00,,,0.00,Wunderground v.1.15,2013-03-18 16:45:00,
2013-03-18 12:51:00,29.9,16.5,30.36,NE,36,4.0,4.0,57,0.00,,,0.00,Wunderground v.1.15,2013-03-18 16:51:00,
2013-03-18 12:56:00,30.5,16.7,30.36,South,173,3.0,11.0,56,0.00,,,0.00,Wunderground v.1.15,2013-03-18 16:56:00,
2013-03-18 13:01:00,30.3,16.5,30.36,East,89,3.0,4.0,56,0.00,,,0.00,Wunderground v.1.15,2013-03-18 17:01:00,
2013-03-18 13:07:00,30.4,17.0,30.36,NE,45,4.0,7.0,57,0.00,,,0.00,Wunderground v.1.15,2013-03-18 17:07:00,
2013-03-18 13:12:00,30.6,17.2,30.36,East,80,4.0,4.0,57,0.00,,,0.00,Wunderground v.1.15,2013-03-18 17:12:00,
2013-03-18 13:17:00,30.8,17.3,30.36,ESE,119,3.0,6.0,57,0.00,,,0.00,Wunderground v.1.15,2013-03-18 17:17:00,
2013-03-18 13:23:00,31.2,17.3,30.36,NNE,33,3.0,9.0,56,0.00,,,0.00,Wunderground v.1.15,2013-03-18 17:23:00,
2013-03-18 13:29:00,31.5,17.6,30.35,ESE,118,2.0,9.0,56,0.00,,,0.00,Wunderground v.1.15,2013-03-18 17:29:00,
2013-03-18 13:34:00,31.9,17.1,30.35,ENE,75,2.0,5.0,54,0.00,,,0.00,Wunderground v.1.15,2013-03-18 17:34:00,
2013-03-18 13:40:00,31.9,17.5,30.35,SSE,152,2.0,4.0,55,0.00,,,0.00,Wunderground v.1.15,2013-03-18 17:40:00,
2013-03-18 13:45:00,31.5,17.2,30.35,ESE,108,2.0,6.0,55,0.00,,,0.00,Wunderground v.1.15,2013-03-18 17:45:00,
2013-03-18 13:50:00,31.4,17.1,30.34,East,84,4.0,4.0,55,0.00,,,0.00,Wunderground v.1.15,2013-03-18 17:50:00,
2013-03-18 13:55:00,31.4,17.5,30.34,South,188,3.0,5.0,56,0.00,,,0.00,Wunderground v.1.15,2013-03-18 17:55:00,
2013-03-18 14:00:00,31.7,17.8,30.34,East,80,3.0,3.0,56,0.00,,,0.00,Wunderground v.1.15,2013-03-18 18:00:00,
2013-03-18 14:05:00,31.6,17.7,30.34,ESE,103,3.0,4.0,56,0.00,,,0.00,Wunderground v.1.15,2013-03-18 18:05:00,
2013-03-18 14:10:00,31.8,17.9,30.34,SSW,196,3.0,3.0,56,0.00,,,0.00,Wunderground v.1.15,2013-03-18 18:10:00,
2013-03-18 14:16:00,32.0,17.6,30.33,SE,134,3.0,5.0,55,0.00,,,0.00,Wunderground v.1.15,2013-03-18 18:16:00,
2013-03-18 14:21:00,32.4,18.0,30.33,ESE,102,3.0,3.0,55,0.00,,,0.00,Wunderground v.1.15,2013-03-18 18:21:00,
2013-03-18 14:26:00,32.6,17.3,30.33,SSE,167,2.0,5.0,53,0.00,,,0.00,Wunderground v.1.15,2013-03-18 18:26:00,
2013-03-18 14:32:00,32.4,17.6,30.33,ESE,104,3.0,4.0,54,0.00,,,0.00,Wunderground v.1.15,2013-03-18 18:32:00,
2013-03-18 14:37:00,32.1,17.3,30.32,SE,129,3.0,7.0,54,0.00,,,0.00,Wunderground v.1.15,2013-03-18 18:37:00,
2013-03-18 14:43:00,31.8,16.6,30.32,NE,44,3.0,5.0,53,0.00,,,0.00,Wunderground v.1.15,2013-03-18 18:43:00,
2013-03-18 14:49:00,32.0,16.3,30.31,NE,55,3.0,5.0,52,0.00,,,0.00,Wunderground v.1.15,2013-03-18 18:49:00,
2013-03-18 14:55:00,32.1,16.0,30.32,East,89,4.0,6.0,51,0.00,,,0.00,Wunderground v.1.15,2013-03-18 18:55:00,
2013-03-18 15:01:00,32.3,16.2,30.31,SSE,157,3.0,6.0,51,0.00,,,0.00,Wunderground v.1.15,2013-03-18 19:01:00,
2013-03-18 15:06:00,32.2,16.5,30.31,SE,132,4.0,7.0,52,0.00,,,0.00,Wunderground v.1.15,2013-03-18 19:06:00,
2013-03-18 15:12:00,32.3,16.2,30.31,East,100,3.0,6.0,51,0.00,,,0.00,Wunderground v.1.15,2013-03-18 19:12:00,
2013-03-18 15:18:00,32.0,16.3,30.31,NNE,13,4.0,6.0,52,0.00,,,0.00,Wunderground v.1.15,2013-03-18 19:18:00,
2013-03-18 15:23:00,32.1,16.9,30.31,East,98,3.0,5.0,53,0.00,,,0.00,Wunderground v.1.15,2013-03-18 19:23:00,
2013-03-18 15:28:00,31.9,16.2,30.31,East,94,4.0,8.0,52,0.00,,,0.00,Wunderground v.1.15,2013-03-18 19:28:00,
2013-03-18 15:33:00,32.0,16.3,30.31,ENE,77,4.0,4.0,52,0.00,,,0.00,Wunderground v.1.15,2013-03-18 19:33:00,
2013-03-18 15:39:00,32.1,16.9,30.30,NE,56,3.0,5.0,53,0.00,,,0.00,Wunderground v.1.15,2013-03-18 19:39:00,
2013-03-18 15:44:00,32.2,17.0,30.30,ENE,70,3.0,7.0,53,0.00,,,0.00,Wunderground v.1.15,2013-03-18 19:44:00,
2013-03-18 15:49:00,32.1,16.9,30.30,ESE,102,3.0,7.0,53,0.00,,,0.00,Wunderground v.1.15,2013-03-18 19:49:00,
2013-03-18 15:55:00,31.8,16.6,30.30,East,83,4.0,8.0,53,0.00,,,0.00,Wunderground v.1.15,2013-03-18 19:55:00,
2013-03-18 16:00:00,31.9,17.1,30.29,SE,126,3.0,3.0,54,0.00,,,0.00,Wunderground v.1.15,2013-03-18 20:00:00,
2013-03-18 16:05:00,32.3,17.5,30.29,SE,141,3.0,5.0,54,0.00,,,0.00,Wunderground v.1.15,2013-03-18 20:05:00,
2013-03-18 16:10:00,32.5,18.1,30.29,East,90,3.0,3.0,55,0.00,,,0.00,Wunderground v.1.15,2013-03-18 20:10:00,
2013-03-18 16:15:00,32.6,18.2,30.29,SSE,159,3.0,8.0,55,0.00,,,0.00,Wunderground v.1.15,2013-03-18 20:15:00,
2013-03-18 16:20:00,32.6,18.2,30.29,SSE,163,3.0,4.0,55,0.00,,,0.00,Wunderground v.1.15,2013-03-18 20:20:00,
2013-03-18 16:26:00,32.5,18.1,30.29,SE,135,3.0,7.0,55,0.00,,,0.00,Wunderground v.1.15,2013-03-18 20:26:00,
2013-03-18 16:31:00,32.6,18.2,30.29,ENE,58,3.0,3.0,55,0.00,,,0.00,Wunderground v.1.15,2013-03-18 20:31:00,
2013-03-18 16:36:00,32.8,18.4,30.28,East,101,2.0,4.0,55,0.00,,,0.00,Wunderground v.1.15,2013-03-18 20:36:00,
2013-03-18 16:41:00,32.6,18.6,30.28,SSW,198,3.0,3.0,56,0.00,,,0.00,Wunderground v.1.15,2013-03-18 20:41:00,
2013-03-18 16:47:00,32.3,18.3,30.28,ESE,123,4.0,8.0,56,0.00,,,0.00,Wunderground v.1.15,2013-03-18 20:47:00,
2013-03-18 16:52:00,32.4,18.4,30.28,SE,127,3.0,7.0,56,0.00,,,0.00,Wunderground v.1.15,2013-03-18 20:52:00,
2013-03-18 16:58:00,32.4,18.8,30.28,SSE,165,3.0,7.0,57,0.00,,,0.00,Wunderground v.1.15,2013-03-18 20:58:00,
2013-03-18 17:04:00,32.4,18.8,30.27,SSE,164,3.0,7.0,57,0.00,,,0.00,Wunderground v.1.15,2013-03-18 21:04:00,
2013-03-18 17:09:00,32.5,18.5,30.27,South,175,2.0,8.0,56,0.00,,,0.00,Wunderground v.1.15,2013-03-18 21:09:00,
2013-03-18 17:14:00,32.4,18.8,30.26,ENE,74,3.0,5.0,57,0.00,,,0.00,Wunderground v.1.15,2013-03-18 21:14:00,
2013-03-18 17:19:00,32.4,18.8,30.26,WSW,249,2.0,5.0,57,0.00,,,0.00,Wunderground v.1.15,2013-03-18 21:19:00,
2013-03-18 17:25:00,32.3,19.2,30.26,NE,52,3.0,7.0,58,0.00,,,0.00,Wunderground v.1.15,2013-03-18 21:25:00,
2013-03-18 17:30:00,32.3,19.6,30.25,SW,219,3.0,4.0,59,0.00,,,0.00,Wunderground v.1.15,2013-03-18 21:30:00,
2013-03-18 17:35:00,32.3,19.6,30.26,SSE,153,4.0,9.0,59,0.00,,,0.00,Wunderground v.1.15,2013-03-18 21:35:00,
2013-03-18 17:40:00,32.3,20.0,30.26,South,187,4.0,4.0,60,0.00,,,0.00,Wunderground v.1.15,2013-03-18 21:40:00,
2013-03-18 17:46:00,32.3,20.0,30.26,SE,144,3.0,7.0,60,0.00,,,0.00,Wunderground v.1.15,2013-03-18 21:46:00,
2013-03-18 17:52:00,32.3,20.0,30.26,SE,145,4.0,4.0,60,0.00,,,0.00,Wunderground v.1.15,2013-03-18 21:52:00,
2013-03-18 17:57:00,32.3,20.0,30.26,SSW,211,4.0,6.0,60,0.00,,,0.00,Wunderground v.1.15,2013-03-18 21:57:00,
2013-03-18 18:02:00,32.3,19.6,30.26,SSE,163,3.0,5.0,59,0.00,,,0.00,Wunderground v.1.15,2013-03-18 22:02:00,
2013-03-18 18:08:00,32.3,19.6,30.26,WSW,240,2.0,5.0,59,0.00,,,0.00,Wunderground v.1.15,2013-03-18 22:08:00,
2013-03-18 18:13:00,32.4,19.7,30.26,South,190,2.0,9.0,59,0.00,,,0.00,Wunderground v.1.15,2013-03-18 22:13:00,
2013-03-18 18:19:00,32.3,19.6,30.25,SW,216,3.0,9.0,59,0.00,,,0.00,Wunderground v.1.15,2013-03-18 22:19:00,
2013-03-18 18:24:00,32.3,19.2,30.25,SE,127,3.0,5.0,58,0.00,,,0.00,Wunderground v.1.15,2013-03-18 22:24:00,
2013-03-18 18:29:00,32.2,19.1,30.25,SSW,196,2.0,5.0,58,0.00,,,0.00,Wunderground v.1.15,2013-03-18 22:29:00,
2013-03-18 18:35:00,32.3,19.2,30.25,SSW,213,2.0,3.0,58,0.00,,,0.00,Wunderground v.1.15,2013-03-18 22:35:00,
2013-03-18 18:40:00,32.3,19.2,30.25,South,182,1.0,1.0,58,0.00,,,0.00,Wunderground v.1.15,2013-03-18 22:40:00,
2013-03-18 18:45:00,32.4,19.3,30.26,SSE,159,1.0,1.0,58,0.00,,,0.00,Wunderground v.1.15,2013-03-18 22:45:00,
2013-03-18 18:51:00,32.4,18.4,30.26,South,188,2.0,4.0,56,0.00,,,0.00,Wunderground v.1.15,2013-03-18 22:51:00,
2013-03-18 18:57:00,32.4,17.6,30.25,South,170,3.0,5.0,54,0.00,,,0.00,Wunderground v.1.15,2013-03-18 22:57:00,
2013-03-18 19:02:00,32.4,17.6,30.25,SSE,159,3.0,7.0,54,0.00,,,0.00,Wunderground v.1.15,2013-03-18 23:02:00,
2013-03-18 19:07:00,32.4,17.6,30.26,SSE,151,3.0,7.0,54,0.00,,,0.00,Wunderground v.1.15,2013-03-18 23:07:00,
2013-03-18 19:13:00,32.3,17.5,30.26,SSW,211,3.0,7.0,54,0.00,,,0.00,Wunderground v.1.15,2013-03-18 23:13:00,
2013-03-18 19:18:00,32.2,17.4,30.26,South,189,3.0,7.0,54,0.00,,,0.00,Wunderground v.1.15,2013-03-18 23:18:00,
2013-03-18 19:23:00,32.1,17.7,30.26,SSW,192,2.0,6.0,55,0.00,,,0.00,Wunderground v.1.15,2013-03-18 23:23:00,
2013-03-18 19:29:00,32.0,18.1,30.27,SSW,196,3.0,6.0,56,0.00,,,0.00,Wunderground v.1.15,2013-03-18 23:29:00,
2013-03-18 19:34:00,31.9,18.0,30.27,SSW,197,3.0,7.0,56,0.00,,,0.00,Wunderground v.1.15,2013-03-18 23:34:00,
2013-03-18 19:39:00,31.8,18.3,30.27,SSW,202,3.0,7.0,57,0.00,,,0.00,Wunderground v.1.15,2013-03-18 23:39:00,
2013-03-18 19:44:00,31.8,19.1,30.27,SSE,167,3.0,4.0,59,0.00,,,0.00,Wunderground v.1.15,2013-03-18 23:44:00,
2013-03-18 19:50:00,31.7,19.0,30.26,South,170,2.0,8.0,59,0.00,,,0.00,Wunderground v.1.15,2013-03-18 23:50:00,
2013-03-18 19:55:00,31.7,19.0,30.26,South,186,3.0,9.0,59,0.00,,,0.00,Wunderground v.1.15,2013-03-18 23:55:00,
2013-03-18 20:00:00,31.6,19.3,30.26,SSW,200,4.0,5.0,60,0.00,,,0.00,Wunderground v.1.15,2013-03-19 00:00:00,
2013-03-18 20:05:00,31.6,19.3,30.26,SSW,207,4.0,5.0,60,0.00,,,0.00,Wunderground v.1.15,2013-03-19 00:05:00,
2013-03-18 20:11:00,31.6,19.7,30.25,SSE,161,3.0,6.0,61,0.00,,,0.00,Wunderground v.1.15,2013-03-19 00:11:00,
2013-03-18 20:16:00,31.6,20.1,30.25,SE,136,3.0,6.0,62,0.00,,,0.00,Wunderground v.1.15,2013-03-19 00:16:00,
2013-03-18 20:22:00,31.6,20.1,30.24,SE,129,3.0,5.0,62,0.00,,,0.00,Wunderground v.1.15,2013-03-19 00:22:00,
2013-03-18 20:27:00,31.6,20.1,30.24,SSW,205,3.0,5.0,62,0.00,,,0.00,Wunderground v.1.15,2013-03-19 00:27:00,
2013-03-18 20:32:00,31.5,20.0,30.24,SW,217,2.0,3.0,62,0.00,,,0.00,Wunderground v.1.15,2013-03-19 00:32:00,
2013-03-18 20:38:00,31.6,20.4,30.23,SW,224,3.0,4.0,63,0.00,,,0.00,Wunderground v.1.15,2013-03-19 00:38:00,
2013-03-18 20:44:00,31.6,20.4,30.24,East,90,2.0,5.0,63,0.00,,,0.00,Wunderground v.1.15,2013-03-19 00:44:00,
2013-03-18 20:50:00,31.6,20.4,30.24,South,177,3.0,5.0,63,0.00,,,0.00,Wunderground v.1.15,2013-03-19 00:50:00,
2013-03-18 20:55:00,31.6,20.8,30.24,SSE,150,4.0,11.0,64,0.00,,,0.00,Wunderground v.1.15,2013-03-19 00:55:00,
2013-03-18 21:00:00,31.7,20.9,30.24,South,171,3.0,7.0,64,0.00,,,0.00,Wunderground v.1.15,2013-03-19 01:00:00,
2013-03-18 21:07:00,31.7,20.9,30.24,SSE,151,4.0,9.0,64,0.00,,,0.00,Wunderground v.1.15,2013-03-19 01:07:00,
2013-03-18 21:12:00,31.7,20.9,30.24,South,180,4.0,6.0,64,0.00,,,0.00,Wunderground v.1.15,2013-03-19 01:12:00,
2013-03-18 21:17:00,31.8,21.4,30.24,SE,139,4.0,7.0,65,0.00,,,0.00,Wunderground v.1.15,2013-03-19 01:17:00,
2013-03-18 21:23:00,31.8,21.4,30.24,SSW,192,4.0,6.0,65,0.00,,,0.00,Wunderground v.1.15,2013-03-19 01:23:00,
2013-03-18 21:28:00,31.8,21.4,30.24,South,182,3.0,6.0,65,0.00,,,0.00,Wunderground v.1.15,2013-03-19 01:28:00,
2013-03-18 21:34:00,31.9,21.5,30.24,South,190,2.0,6.0,65,0.00,,,0.00,Wunderground v.1.15,2013-03-19 01:34:00,
2013-03-18 21:40:00,31.5,22.8,30.24,South,171,4.0,6.0,70,0.00,,,0.00,Wunderground v.1.15,2013-03-19 01:40:00,
2013-03-18 21:46:00,30.3,24.9,30.24,South,189,5.0,7.0,80,0.00,,,0.00,Wunderground v.1.15,2013-03-19 01:46:00,
2013-03-18 21:51:00,29.5,25.3,30.24,SSE,165,5.0,5.0,84,0.00,,,0.00,Wunderground v.1.15,2013-03-19 01:51:00,
2013-03-18 21:56:00,29.1,25.7,30.24,SSE,160,4.0,7.0,87,0.00,,,0.00,Wunderground v.1.15,2013-03-19 01:56:00,
2013-03-18 22:04:00,28.8,25.7,30.23,ESE,120,3.0,5.0,88,0.00,,,0.00,Wunderground v.1.15,2013-03-19 02:04:00,
2013-03-18 22:10:00,28.8,26.0,30.23,South,182,1.0,3.0,89,0.00,,,0.00,Wunderground v.1.15,2013-03-19 02:10:00,
2013-03-18 22:16:00,28.8,26.2,30.23,South,169,1.0,4.0,90,0.00,,,0.00,Wunderground v.1.15,2013-03-19 02:16:00,
2013-03-18 22:22:00,28.9,26.6,30.23,South,188,1.0,3.0,91,0.00,,,0.00,Wunderground v.1.15,2013-03-19 02:22:00,
2013-03-18 22:28:00,28.9,26.3,30.22,South,173,2.0,4.0,90,0.00,,,0.00,Wunderground v.1.15,2013-03-19 02:28:00,
2013-03-18 22:33:00,28.9,26.6,30.22,SSE,150,2.0,2.0,91,0.00,,,0.00,Wunderground v.1.15,2013-03-19 02:33:00,
2013-03-18 22:38:00,28.9,26.6,30.22,SSE,153,2.0,5.0,91,0.00,,,0.00,Wunderground v.1.15,2013-03-19 02:38:00,
2013-03-18 22:44:00,28.9,26.6,30.22,SSW,192,2.0,6.0,91,0.00,,,0.00,Wunderground v.1.15,2013-03-19 02:44:00,
2013-03-18 22:49:00,28.9,26.6,30.22,SSE,163,2.0,7.0,91,0.00,,,0.00,Wunderground v.1.15,2013-03-19 02:49:00,
2013-03-18 22:54:00,29.0,27.0,30.22,SE,140,2.0,4.0,92,0.00,,,0.00,Wunderground v.1.15,2013-03-19 02:54:00,
2013-03-18 22:59:00,29.0,27.0,30.22,South,176,1.0,4.0,92,0.00,,,0.00,Wunderground v.1.15,2013-03-19 02:59:00,
2013-03-18 23:04:00,29.1,27.1,30.22,SE,139,1.0,3.0,92,0.00,,,0.00,Wunderground v.1.15,2013-03-19 03:04:00,
2013-03-18 23:10:00,29.2,27.2,30.21,SSW,192,2.0,2.0,92,0.00,,,0.00,Wunderground v.1.15,2013-03-19 03:10:00,
2013-03-18 23:15:00,29.3,27.3,30.21,South,169,2.0,3.0,92,0.00,,,0.00,Wunderground v.1.15,2013-03-19 03:15:00,
2013-03-18 23:20:00,29.3,27.0,30.21,SSE,162,2.0,2.0,91,0.00,,,0.00,Wunderground v.1.15,2013-03-19 03:20:00,
2013-03-18 23:26:00,29.3,27.3,30.21,South,169,1.0,6.0,92,0.00,,,0.00,Wunderground v.1.15,2013-03-19 03:26:00,
2013-03-18 23:31:00,29.5,27.5,30.21,East,86,2.0,2.0,92,0.00,,,0.00,Wunderground v.1.15,2013-03-19 03:31:00,
2013-03-18 23:37:00,29.6,27.8,30.21,SSE,159,3.0,6.0,93,0.00,,,0.00,Wunderground v.1.15,2013-03-19 03:37:00,
2013-03-18 23:43:00,29.7,27.9,30.20,SE,130,3.0,6.0,93,0.00,,,0.00,Wunderground v.1.15,2013-03-19 03:43:00,
2013-03-18 23:48:00,29.7,27.9,30.20,ESE,109,2.0,6.0,93,0.00,,,0.00,Wunderground v.1.15,2013-03-19 03:48:00,
2013-03-18 23:54:00,29.7,27.7,30.20,SSE,161,2.0,4.0,92,0.00,,,0.00,Wunderground v.1.15,2013-03-19 03:54:00,